Tracking 19293 objects as of 21-Nov-2018
HD Live streaming from Space Station
objects crossing your sky now

OPS 3165

Track OPS 3165 now!
OPS 3165 is classified as:


NORAD ID: 8482
Int'l Code: 1975-118A
Perigee: 35,609.1 km
Apogee: 35,864.5 km
Inclination: 9.1 °
Period: 1,433.2 minutes
Semi major axis: 42107 km
RCS: Unknown
Launch date: December 14, 1975
Source: United States (US)
Launch site: AIR FORCE EASTERN TEST RANGE (AFETR)
aabbcc
Your satellite tracking list
Your tracking list is empty




NASA's NSSDC Master Catalog

Two Line Element Set (TLE):
1 08482U 75118A   18310.14554297 0.00000000  00000-0  00000-0 0    07
2 08482   9.0770 303.2823 0030324 297.1993  62.5039  1.00475282    04
Source of the keplerian elements: McCants